EW8749 Weather Reports


Display with metric or nautical units.
time (UTC)temp
F
wind
direction
speed
MPH
gust
MPH
rain 1hr
in
rain 24hr
in
rain mn
in
humidity
%
barometer
mb
20260508003035 47 213 5.0 16.0 0.00 0.00 0.00 84 1021.9
20260508001534 45 255 4.0 15.0 0.00 0.00 0.00 85 1022.2
20260508000030 45 213 4.0 14.0 0.00 0.00 0.00 85 1022.3
20260507234533 45 322 6.0 17.0 0.00 0.00 0.00 85 1022.2
20260507233033 44 292 4.0 11.0 0.00 0.00 0.00 86 1022.2
20260507231523 44 284 5.0 11.0 0.00 0.00 0.00 87 1022.1
20260507224522 43 18 2.0 9.0 0.00 0.00 0.00 89 1022.0
20260507223017 42 349 5.0 14.0 0.00 0.00 0.00 89 1021.5
20260507221518 42 337 2.0 14.0 0.00 0.00 0.00 89 1021.6
20260507220014 42 301 5.0 15.0 0.00 0.00 0.00 89 1021.0
20260507074534 43 254 3.0 8.0 0.00 0.00 0.00 67 1020.3
20260507071548 44 243 3.0 9.0 0.00 0.00 0.00 65 1020.0
20260507060035 47 190 5.0 11.0 0.00 0.00 0.00 55 1018.9
20260507054536 48 178 5.0 11.0 0.00 0.00 0.00 56 1018.7
20260507053023 49 243 1.0 11.0 0.00 0.00 0.00 55 1018.5
20260507050044 48 244 3.0 13.0 0.00 0.00 0.00 55 1018.2
20260507044523 49 232 6.0 13.0 0.00 0.00 0.00 53 1018.0
20260507043019 49 173 4.0 11.0 0.00 0.00 0.00 53 1017.7
20260507041517 49 242 4.0 11.0 0.00 0.00 0.00 52 1017.5
20260507040022 49 202 1.0 14.0 0.00 0.00 0.00 53 1017.5
20260507034519 49 219 5.0 14.0 0.00 0.00 0.00 53 1017.4
20260507033021 49 243 6.0 15.0 0.00 0.00 0.00 52 1017.3
20260507031515 49 220 5.0 13.0 0.00 0.00 0.00 53 1017.2
20260507030011 48 230 4.0 13.0 0.00 0.00 0.00 55 1017.1
20260507024515 48 211 3.0 12.0 0.00 0.00 0.00 55 1017.2
20260507023010 48 216 2.0 10.0 0.00 0.00 0.00 56 1017.3
20260507021518 47 294 3.0 10.0 0.00 0.00 0.00 57 1017.3
20260507020010 47 284 3.0 12.0 0.00 0.00 0.00 57 1017.3
20260507014507 47 228 6.0 13.0 0.00 0.00 0.00 57 1017.3
20260507013008 47 220 6.0 13.0 0.00 0.00 0.00 57 1017.3
20260507011513 47 251 2.0 13.0 0.00 0.00 0.00 56 1017.6
20260507010007 46 240 5.0 14.0 0.00 0.00 0.00 55 1017.5
20260507004501 46 251 4.0 10.0 0.00 0.00 0.00 55 1017.5